Regional Weather Roundup
Issued by NWS Little Rock, AR

Home | Current Version | Previous Version | Graphics & Text | Print | Product List | Glossary On
Versions: 1 2 3 4 5 6 7 8 9 10 11 12 13 14 15 16 17 18 19 20 21 22 23 24 25 26 27 28 29 30 31 32 33 34 35 36 37 38 39 40 41 42 43 44 45 46 47 48 49 50
000
ASUS44 KLZK 291705
RWRLZK

WEATHER ROUNDUP FOR ARKANSAS
NATIONAL WEATHER SERVICE LITTLE ROCK AR
1200 PM CDT SUN MAR 29 2015

NOTE: "FAIR" INDICATES FEW OR NO CLOUDS BELOW 12,000 FEET WITH NO
SIGNIFICANT WEATHER AND/OR OBSTRUCTIONS TO VISIBILITY.

ARZ001-003-010-029-291800-
NORTHWEST ARKANSAS

CITY           SKY/WX    TMP DP  RH WIND       PRES   REMARKS
FAYETTEVILLE   SUNNY     61  45  55 W8G20     30.06R
FORT SMITH     SUNNY     59  40  49 E13       30.04F
HARRISON       SUNNY     60  41  49 SE9       30.05R
BENTONVILLE    SUNNY     63  41  45 W13       30.06S
ROGERS         SUNNY     62  43  49 W10       30.04S
SILOAM SPGS    SUNNY     63  41  45 SW12G17   30.06S
HIGHFILL       SUNNY     62  42  47 SW14      30.04R
SPRINGDALE     SUNNY     61  43  51 SW14G25   30.07R
$$

ARZ004-005-016-291800-
NORTH CENTRAL ARKANSAS

CITY           SKY/WX    TMP DP  RH WIND       PRES   REMARKS
BATESVILLE     MOSUNNY   52  37  58 S10       30.14F
FLIPPIN        SUNNY     55  37  50 SE9       30.07S
MTN HOME       SUNNY     56  40  55 SE9       30.07F
$$

ARZ040-041-291800-
WEST CENTRAL ARKANSAS

CITY           SKY/WX    TMP DP  RH WIND       PRES   REMARKS
MENA           SUNNY     64  45  48 S6        30.08F
MOUNT IDA      SUNNY     54  45  71 S8        30.09F
$$

ARZ009-017-025-026-028-291800-
NORTHEAST ARKANSAS

CITY           SKY/WX    TMP DP  RH WIND       PRES   REMARKS
CORNING          N/A     50  34  53 S8        30.18F
JONESBORO      CLOUDY    47  35  63 S14       30.18F
NEWPORT        CLOUDY    50  39  65 S22       30.18F
BLYTHEVILLE    CLOUDY    52  33  48 S17       30.20F
$$

ARZ022-023-033-042-044-291800-
CENTRAL ARKANSAS

CITY           SKY/WX    TMP DP  RH WIND       PRES   REMARKS
LITTLE ROCK    CLOUDY    56  43  61 SE6       30.15F
N LITTLE ROCK  CLOUDY    52  45  78 S9G16     30.15F
JACKSONVILLE   CLOUDY    53  42  67 S8        30.14F
SEARCY         CLOUDY    54  43  66 S14       30.17F
HOT SPRINGS    CLOUDY    50  44  80 SE7       30.14F
RUSSELLVILLE   SUNNY     51  40  65 E6        30.12F
CLINTON        CLOUDY    50  41  71 S7        30.15F
$$

ARZ036-291800-
EAST ARKANSAS

CITY           SKY/WX    TMP DP  RH WIND       PRES   REMARKS
WEST MEMPHIS   CLOUDY    52  38  58 S16       30.20F
$$

ARZ050-053-066-070-073-291800-
SOUTHWEST ARKANSAS

CITY           SKY/WX    TMP DP  RH WIND       PRES   REMARKS
ARKADELPHIA    FAIR      61  51  69 VRB5      30.14F
CAMDEN         SUNNY     68  50  52 MISG      30.13F
TEXARKANA      SUNNY     69  53  56 S14       30.09F
EL DORADO      SUNNY     69  55  60 S13G21    30.14F
DE QUEEN       SUNNY     60  46  59 S7        30.09F
$$

ARZ056-057-069-291800-
SOUTHEAST ARKANSAS

CITY           SKY/WX    TMP DP  RH WIND       PRES   REMARKS
PINE BLUFF     MOSUNNY   60  49  66 S14       30.16F
STUTTGART      CLOUDY    55  43  62 S20       30.17F
MONTICELLO     SUNNY     62  49  62 S12       30.17F

$$




USA.gov is the U.S. government's official web portal to all federal, state and local government web resources and services.